Temp
-10 -10 -10 -10 -10 -10 -10 -10 -10 -10 -10 -9 -9 -9 -10 -11 -11 -11 -11 -11 -11 -11 -11 -11 -11 -11 -11 -11 -11 -11 -11 -11 -11 -11 -11 -11 -11 -12 -12 -13 -13 -13 -13 -14
-11 -10 -11 -11 -11 -11 -11 -10 -10 -10 -10 -9 -9 -9 -10 -10 -11 -11 -11 -11 -11 -11 -11 -11 -11 -11 -11 -11 -11 -11 -11 -11 -11 -11 -11 -11 -11 -12 -13 -13 -13 -13 -13 -14
-11 -11 -11 -11 -11 -11 -11 -11 -11 -10 -10 -10 -9 -8 -9 -10 -11 -11 -11 -11 -11 -11 -11 -11 -11 -11 -11 -11 -11 -11 -11 -11 -11 -11 -11 -12 -12 -13 -14 -14 -13 -14 -14 -16
-11 -11 -11 -11 -11 -12 -11 -11 -11 -11 -10 -10 -10 -8 -8 -9 -10 -11 -11 -11 -11 -11 -11 -11 -12 -11 -11 -11 -11 -12 -12 -11 -11 -12 -12 -12 -13 -14 -14 -14 -14 -14 -15 -17
-11 -11 -12 -11 -12 -12 -12 -12 -11 -11 -11 -10 -10 -10 -9 -9 -10 -11 -11 -12 -11 -11 -11 -11 -11 -11 -11 -11 -12 -12 -12 -11 -12 -12 -12 -13 -14 -14 -14 -14 -14 -14 -16 -18
-12 -12 -12 -12 -12 -12 -12 -12 -12 -12 -12 -10 -10 -10 -8 -10 -11 -11 -12 -12 -12 -12 -11 -11 -11 -11 -12 -12 -12 -12 -12 -12 -12 -13 -13 -14 -14 -14 -14 -14 -14 -16 -17 -18
-12 -12 -12 -12 -13 -13 -13 -13 -13 -12 -12 -11 -11 -10 -8 -10 -11 -11 -11 -12 -12 -12 -12 -11 -11 -11 -12 -12 -12 -12 -12 -13 -13 -13 -14 -14 -14 -14 -15 -15 -15 -16 -17 -18
-13 -12 -13 -12 -13 -13 -13 -13 -13 -14 -13 -11 -11 -9 -9 -10 -11 -11 -12 -12 -12 -11 -11 -11 -12 -12 -12 -12 -12 -13 -13 -13 -14 -14 -14 -14 -14 -15 -15 -15 -16 -17 -18 -18
-14 -13 -13 -13 -13 -14 -13 -13 -14 -14 -14 -13 -11 -9 -10 -10 -11 -11 -12 -12 -11 -11 -11 -11 -12 -12 -12 -12 -13 -13 -13 -13 -14 -14 -14 -15 -15 -15 -15 -16 -17 -18 -19 -19
-15 -16 -14 -14 -13 -14 -14 -15 -15 -15 -14 -14 -11 -10 -9 -11 -11 -12 -13 -12 -11 -11 -11 -12 -12 -12 -13 -13 -13 -13 -14 -14 -14 -14 -15 -15 -16 -16 -17 -17 -18 -18 -19 -20
-16 -17 -15 -14 -13 -14 -15 -15 -15 -15 -15 -15 -14 -8 -10 -11 -12 -13 -13 -12 -12 -12 -12 -13 -13 -13 -13 -14 -14 -14 -14 -15 -15 -15 -15 -16 -16 -17 -17 -18 -18 -19 -20 -21
-15 -16 -15 -15 -15 -15 -15 -14 -15 -15 -15 -15 -15 -10 -11 -12 -13 -14 -13 -13 -12 -13 -13 -13 -13 -13 -13 -13 -14 -14 -14 -15 -15 -16 -17 -17 -17 -17 -18 -18 -19 -20 -20 -21
-15 -17 -17 -14 -13 -14 -15 -15 -15 -15 -14 -14 -16 -10 -12 -13 -14 -14 -13 -13 -13 -13 -14 -14 -14 -14 -14 -14 -15 -15 -15 -16 -16 -16 -17 -17 -17 -18 -19 -19 -20 -21 -21 -21
-16 -17 -14 -14 -13 -15 -15 -15 -14 -14 -14 -14 -13 -12 -10 -14 -14 -15 -14 -13 -14 -14 -14 -14 -14 -14 -15 -15 -16 -16 -16 -16 -17 -17 -18 -18 -18 -18 -19 -19 -20 -21 -21 -22
-15 -15 -14 -14 -13 -16 -15 -14 -12 -13 -13 -15 -12 -14 -11 -14 -16 -14 -14 -14 -14 -14 -14 -15 -15 -15 -16 -16 -16 -16 -17 -17 -17 -18 -18 -18 -19 -19 -19 -20 -21 -21 -22 -22
-15 -15 -15 -14 -13 -16 -17 -12 -14 -12 -13 -14 -14 -13 -13 -17 -17 -15 -16 -15 -15 -15 -15 -15 -16 -16 -16 -17 -17 -18 -18 -18 -18 -19 -19 -19 -19 -19 -19 -20 -22 -21 -22 -23
-15 -15 -15 -15 -15 -17 -17 -11 -13 -13 -14 -14 -14 -12 -14 -16 -17 -16 -16 -17 -17 -16 -16 -17 -17 -17 -18 -18 -18 -18 -19 -19 -19 -20 -20 -20 -20 -20 -20 -21 -22 -22 -23 -24
-15 -15 -16 -16 -17 -17 -12 -13 -13 -13 -13 -14 -14 -13 -15 -17 -16 -15 -17 -17 -17 -18 -17 -17 -18 -18 -19 -19 -19 -19 -19 -19 -20 -20 -20 -20 -20 -21 -21 -22 -22 -22 -23 -24
-16 -16 -16 -17 -17 -16 -14 -11 -14 -16 -14 -12 -14 -15 -17 -17 -17 -16 -18 -18 -18 -18 -18 -18 -18 -19 -19 -19 -19 -19 -20 -20 -21 -21 -21 -21 -21 -21 -22 -22 -23 -23 -24 -25
-17 -17 -17 -18 -18 -17 -13 -14 -15 -16 -16 -10 -16 -17 -17 -18 -17 -16 -17 -17 -18 -18 -18 -19 -19 -19 -19 -19 -20 -20 -20 -20 -21 -21 -22 -22 -22 -22 -23 -23 -23 -24 -25 -25
-18 -17 -17 -17 -17 -17 -16 -16 -17 -17 -12 -16 -17 -17 -17 -17 -17 -17 -18 -18 -18 -18 -18 -18 -19 -19 -19 -19 -19 -20 -20 -20 -21 -22 -22 -22 -23 -23 -23 -23 -24 -24 -25 -25
-18 -19 -17 -17 -18 -18 -16 -17 -17 -16 -16 -16 -17 -17 -18 -18 -18 -18 -18 -18 -19 -18 -19 -20 -19 -20 -20 -19 -20 -20 -20 -21 -22 -22 -23 -23 -23 -24 -24 -24 -24 -24 -25 -25
-19 -17 -18 -19 -18 -18 -17 -17 -17 -17 -17 -17 -18 -18 -18 -18 -18 -19 -19 -20 -20 -19 -20 -20 -20 -20 -20 -20 -20 -20 -21 -21 -22 -23 -24 -24 -24 -25 -25 -25 -25 -25 -25 -26
-18 -16 -17 -18 -18 -18 -18 -18 -17 -18 -18 -18 -18 -18 -18 -18 -19 -19 -20 -20 -20 -20 -20 -20 -20 -20 -20 -21 -21 -21 -22 -22 -23 -24 -25 -26 -26 -26 -26 -26 -26 -26 -26 -27
-20 -20 -19 -17 -17 -17 -17 -17 -17 -18 -19 -19 -19 -19 -19 -19 -20 -20 -21 -21 -21 -20 -20 -20 -21 -21 -21 -21 -22 -22 -23 -24 -25 -26 -27 -27 -27 -27 -27 -27 -26 -26 -27 -28
-20 -20 -21 -20 -17 -17 -16 -16 -18 -19 -18 -19 -20 -20 -19 -19 -20 -20 -20 -21 -21 -21 -21 -21 -21 -21 -21 -22 -23 -23 -24 -25 -26 -27 -28 -28 -28 -28 -27 -27 -27 -28 -29 -30
Height
5829 5828 5825 5822 5818 5815 5812 5809 5807 5806 5800 5791 5794 5790 5795 5790 5786 5782 5777 5773 5769 5764 5759 5757 5755 5753 5751 5747 5742 5739 5734 5730 5725 5720 5715 5708 5701 5695 5688 5681 5676 5669 5660 5652
5821 5820 5817 5814 5811 5807 5803 5800 5800 5795 5791 5785 5782 5780 5782 5784 5780 5775 5770 5766 5760 5755 5751 5748 5745 5743 5739 5735 5730 5726 5722 5718 5714 5709 5703 5696 5689 5682 5674 5667 5660 5652 5641 5630
5810 5812 5810 5806 5803 5799 5795 5792 5788 5784 5780 5778 5771 5764 5770 5779 5771 5766 5763 5759 5753 5746 5740 5737 5733 5731 5727 5723 5719 5714 5710 5706 5700 5694 5688 5681 5675 5668 5662 5654 5645 5633 5622 5610
5800 5803 5799 5796 5795 5790 5784 5785 5779 5775 5770 5764 5765 5744 5753 5759 5761 5755 5752 5749 5742 5735 5730 5726 5722 5719 5716 5711 5707 5702 5697 5692 5685 5679 5673 5667 5661 5656 5648 5640 5628 5614 5601 5591
5795 5791 5789 5787 5785 5781 5775 5772 5769 5765 5761 5753 5756 5746 5735 5743 5744 5743 5739 5734 5727 5720 5715 5712 5709 5706 5702 5698 5693 5687 5681 5675 5669 5664 5659 5653 5647 5639 5631 5622 5610 5596 5584 5574
5784 5780 5778 5777 5774 5770 5766 5760 5756 5753 5750 5741 5747 5737 5724 5734 5731 5730 5726 5722 5714 5708 5703 5699 5695 5691 5687 5683 5678 5673 5666 5660 5654 5649 5643 5637 5630 5622 5612 5600 5588 5575 5565 5556
5771 5769 5766 5764 5761 5757 5753 5749 5744 5739 5736 5734 5732 5720 5721 5723 5720 5718 5714 5707 5699 5693 5691 5686 5682 5677 5674 5669 5663 5658 5651 5645 5639 5633 5626 5619 5612 5603 5593 5580 5568 5558 5550 5540
5755 5753 5755 5753 5749 5744 5740 5739 5735 5726 5724 5723 5716 5706 5708 5705 5710 5707 5702 5692 5685 5678 5676 5673 5668 5665 5660 5656 5650 5643 5637 5630 5624 5617 5609 5601 5593 5583 5571 5559 5548 5539 5530 5523
5742 5740 5740 5739 5736 5732 5728 5726 5723 5714 5716 5712 5706 5700 5692 5698 5700 5694 5689 5679 5673 5667 5663 5658 5655 5650 5645 5640 5634 5628 5622 5616 5608 5601 5592 5583 5573 5562 5551 5539 5529 5521 5512 5504
5727 5723 5726 5725 5721 5717 5716 5714 5709 5704 5698 5691 5692 5683 5674 5685 5685 5678 5671 5664 5658 5654 5650 5647 5642 5637 5631 5625 5619 5613 5606 5599 5592 5585 5575 5564 5554 5543 5532 5521 5511 5502 5493 5483
5709 5708 5712 5708 5706 5705 5700 5694 5695 5691 5682 5677 5674 5665 5671 5673 5668 5664 5658 5652 5646 5642 5637 5633 5628 5623 5616 5610 5604 5597 5591 5584 5576 5568 5558 5547 5536 5525 5514 5504 5494 5484 5474 5461
5695 5689 5693 5695 5687 5684 5682 5684 5683 5673 5670 5661 5648 5651 5666 5655 5649 5648 5645 5637 5632 5630 5625 5619 5613 5608 5601 5595 5588 5582 5574 5567 5560 5551 5541 5529 5519 5509 5497 5486 5474 5462 5452 5439
5679 5669 5670 5669 5669 5664 5669 5670 5666 5660 5652 5635 5633 5637 5650 5640 5634 5635 5627 5621 5618 5614 5609 5603 5597 5593 5586 5580 5573 5566 5560 5552 5543 5535 5524 5510 5500 5490 5477 5466 5455 5444 5435 5420
5655 5647 5645 5647 5654 5647 5645 5650 5650 5645 5620 5624 5616 5613 5631 5628 5621 5617 5606 5605 5601 5597 5593 5588 5582 5577 5571 5564 5557 5552 5545 5536 5526 5515 5505 5495 5483 5471 5460 5449 5438 5427 5414 5400
5635 5625 5631 5628 5635 5625 5626 5632 5633 5623 5617 5600 5608 5599 5603 5610 5602 5596 5590 5586 5585 5583 5577 5572 5567 5562 5557 5550 5543 5535 5526 5518 5508 5498 5486 5475 5465 5455 5445 5433 5420 5408 5394 5378
5615 5609 5612 5604 5614 5604 5599 5618 5612 5612 5606 5594 5593 5585 5600 5588 5581 5578 5574 5572 5571 5566 5562 5558 5554 5549 5542 5533 5527 5518 5509 5500 5489 5479 5469 5460 5452 5440 5427 5415 5401 5388 5375 5359
5598 5594 5592 5581 5592 5580 5579 5601 5601 5597 5585 5585 5575 5578 5577 5570 5567 5561 5561 5558 5554 5553 5549 5544 5538 5531 5524 5518 5509 5500 5491 5482 5472 5462 5453 5445 5434 5421 5410 5398 5385 5374 5359 5342
5582 5579 5572 5566 5565 5545 5576 5585 5576 5569 5574 5570 5557 5560 5563 5554 5550 5551 5551 5542 5541 5538 5533 5528 5521 5514 5507 5498 5490 5483 5475 5466 5457 5447 5436 5427 5417 5406 5396 5385 5373 5360 5344 5325
5566 5561 5551 5540 5535 5536 5556 5573 5564 5557 5549 5558 5544 5551 5544 5538 5534 5540 5530 5526 5525 5520 5514 5510 5504 5497 5488 5481 5474 5466 5457 5448 5439 5429 5420 5411 5403 5394 5383 5372 5360 5346 5329 5308
5551 5543 5532 5527 5512 5507 5544 5561 5549 5539 5518 5558 5539 5535 5526 5521 5516 5524 5514 5511 5506 5502 5498 5492 5486 5477 5470 5463 5456 5448 5439 5431 5422 5413 5404 5396 5390 5381 5370 5357 5345 5332 5315 5295
5528 5521 5513 5511 5496 5491 5529 5531 5526 5516 5525 5530 5519 5515 5510 5502 5503 5502 5500 5496 5491 5486 5480 5474 5467 5460 5453 5447 5439 5432 5425 5416 5408 5400 5392 5383 5376 5367 5356 5344 5331 5318 5301 5280
5509 5504 5500 5495 5485 5479 5517 5507 5500 5510 5509 5506 5505 5497 5491 5489 5487 5485 5481 5478 5473 5467 5463 5456 5448 5443 5437 5431 5425 5418 5410 5402 5393 5385 5377 5370 5361 5352 5342 5330 5317 5303 5287 5268
5473 5485 5490 5475 5468 5482 5489 5489 5492 5493 5492 5492 5487 5484 5479 5475 5472 5467 5463 5458 5454 5450 5444 5438 5433 5427 5422 5415 5408 5400 5392 5384 5377 5370 5361 5353 5344 5336 5327 5313 5303 5292 5275 5254
5448 5464 5454 5461 5458 5470 5479 5479 5478 5479 5477 5472 5468 5465 5462 5458 5453 5448 5444 5439 5436 5431 5427 5422 5417 5410 5405 5398 5390 5382 5375 5367 5360 5352 5346 5338 5331 5321 5310 5299 5286 5273 5262 5242
5430 5438 5431 5427 5439 5452 5460 5469 5467 5458 5454 5452 5450 5445 5443 5438 5435 5430 5426 5422 5418 5413 5409 5405 5400 5394 5387 5380 5373 5366 5359 5352 5345 5339 5333 5325 5318 5309 5298 5284 5274 5260 5243 5227
5400 5406 5403 5398 5426 5426 5431 5445 5443 5433 5435 5436 5428 5423 5424 5421 5418 5413 5408 5404 5401 5396 5393 5388 5382 5375 5368 5362 5356 5350 5344 5338 5332 5328 5321 5314 5306 5296 5288 5277 5257 5241 5229 5218
Wind_Speed
34 35 35 37 37 40 42 42 41 39 43 48 43 43 35 36 37 41 42 42 40 43 45 44 43 44 43 44 45 45 46 46 47 49 51 53 54 56 58 57 60 65 70 76
39 37 39 41 41 43 45 46 44 46 46 50 49 47 42 35 37 37 43 41 44 43 43 43 44 43 45 47 48 49 48 49 50 54 54 55 55 55 57 59 64 70 76 84
43 41 43 44 44 46 48 49 49 51 51 50 53 53 47 34 38 41 36 40 41 43 44 43 43 42 44 46 46 46 47 49 54 57 54 56 56 57 60 63 69 77 82 86
49 46 46 47 47 48 52 48 51 53 55 56 52 59 50 44 40 44 42 44 44 45 45 46 46 45 45 47 45 47 51 55 58 56 56 56 57 58 63 68 75 82 87 86
49 49 48 49 46 46 51 51 53 54 54 57 52 56 57 48 47 46 49 49 52 55 56 54 51 48 47 46 49 51 56 58 57 58 56 57 58 62 68 73 80 86 89 84
48 49 49 47 45 48 50 53 54 55 54 60 52 57 55 51 49 52 51 52 53 54 55 55 53 49 46 48 50 56 58 57 57 56 57 58 62 67 72 80 83 89 88 83
48 48 49 48 48 49 51 53 54 58 57 58 55 61 53 53 53 54 54 56 60 60 55 56 53 48 48 50 55 57 56 56 55 56 58 62 67 70 79 83 87 89 85 82
52 55 48 50 47 51 53 52 52 56 59 60 61 63 61 57 54 57 56 63 63 61 59 56 51 47 50 55 57 57 57 55 54 57 63 67 72 78 83 85 87 85 81 78
49 54 53 54 57 59 59 57 55 59 59 60 61 61 65 61 59 57 59 62 61 62 59 55 45 49 54 58 57 56 55 56 57 60 65 71 78 82 82 84 83 80 78 75
52 55 55 55 58 59 57 57 59 61 63 67 63 66 69 64 58 59 59 63 62 60 55 46 49 53 57 56 56 55 54 57 60 63 69 75 82 82 81 81 80 81 74 78
58 56 57 60 60 59 58 62 61 63 68 69 71 63 63 61 59 60 61 64 63 55 47 48 53 56 55 55 53 54 56 59 62 67 73 81 82 80 80 80 79 77 75 82
63 63 62 63 67 69 68 65 64 66 68 72 78 67 56 61 61 62 60 65 63 52 51 52 54 55 52 52 53 54 58 61 64 71 78 80 78 79 80 79 82 74 78 86
61 65 67 71 72 75 69 68 69 69 74 81 74 68 58 61 63 62 66 63 54 51 54 53 51 47 51 54 54 57 60 64 69 75 82 78 78 80 80 79 81 78 82 87
67 68 75 77 76 75 76 74 72 72 82 79 75 76 60 60 62 63 65 54 51 55 51 49 45 50 52 54 56 58 63 68 73 79 80 78 78 80 80 81 79 80 82 86
73 76 78 83 77 76 76 70 66 68 70 81 71 73 68 60 62 58 54 54 56 53 48 45 48 52 56 59 59 64 66 71 76 78 79 76 78 79 79 80 77 80 84 89
74 77 77 83 78 77 77 70 70 68 69 73 69 69 56 56 54 53 53 55 54 47 48 48 53 57 60 60 63 67 69 72 77 77 78 78 78 78 77 79 78 80 87 94
70 72 75 82 75 77 77 74 70 65 70 66 66 63 54 57 50 55 53 52 48 48 45 53 58 60 61 64 65 69 69 71 74 77 78 76 76 76 77 78 79 82 89 96
74 76 73 74 72 84 83 67 70 70 63 59 62 59 55 49 52 52 47 46 42 45 50 56 59 60 64 68 69 71 72 73 75 78 77 75 76 74 76 77 82 84 91 95
70 73 76 73 76 78 76 71 63 58 64 66 64 57 49 54 53 48 32 39 45 60 54 56 60 68 69 66 66 68 71 72 74 77 76 73 73 73 76 77 82 86 90 95
68 71 73 73 80 82 79 63 60 60 74 62 57 49 50 53 55 54 55 53 62 63 63 61 63 65 62 63 66 70 71 72 74 75 74 70 69 73 75 79 83 87 90 95
66 73 78 80 81 83 67 65 62 67 74 52 58 60 59 59 54 49 51 55 61 63 63 63 65 61 63 64 65 67 69 72 75 76 73 68 69 74 75 79 82 87 90 94
71 73 76 78 81 83 69 59 63 65 56 57 55 50 44 49 52 56 59 57 58 57 60 63 58 58 62 64 64 70 73 72 75 73 69 66 71 73 75 78 82 88 91 91
93 84 75 80 77 72 66 55 52 53 50 42 45 49 50 54 54 56 57 57 57 62 61 57 57 60 62 62 67 71 68 71 73 69 66 65 68 71 74 79 83 87 89 88
97 93 100 94 89 73 64 63 48 62 67 72 61 58 62 64 62 58 58 56 61 63 63 57 61 59 58 63 66 64 65 67 68 63 61 61 64 70 74 79 85 89 86 83
94 96 102 105 102 98 86 71 70 80 65 70 72 74 65 61 58 58 55 55 59 60 64 65 67 63 64 63 62 63 64 63 60 57 56 59 62 68 73 80 83 87 86 79
102 93 89 101 105 100 100 96 84 80 79 71 60 66 63 63 61 62 58 58 61 65 67 66 63 62 61 59 61 62 61 57 51 51 53 55 57 65 71 76 81 83 79 69
Wind_Direction
288 291 293 295 299 301 302 303 306 302 299 300 303 304 307 306 311 313 310 314 309 304 299 300 296 292 292 290 291 297 294 293 294 299 298 302 305 303 298 293 295 298 297 292
290 291 290 294 294 297 296 299 304 303 301 299 300 302 301 305 309 308 308 308 306 299 298 299 297 294 292 291 291 295 292 293 297 300 300 304 305 298 295 296 297 298 298 293
285 289 290 290 292 294 293 298 299 302 302 300 299 300 301 300 307 306 311 307 304 304 299 298 297 296 296 295 293 291 293 297 303 305 304 306 302 300 295 298 300 299 294 292
283 290 290 291 293 291 292 295 297 299 300 301 299 302 302 307 309 309 311 312 306 305 303 299 297 298 297 298 294 292 298 304 306 305 306 303 301 296 297 299 300 297 295 299
285 287 287 289 291 290 293 294 295 296 297 297 301 297 301 308 312 314 312 315 311 306 306 306 302 301 299 301 300 300 303 307 305 307 304 301 297 296 299 301 300 297 299 306
284 286 287 290 290 290 293 294 293 296 295 294 301 296 295 306 307 313 313 313 305 304 301 306 305 303 298 300 301 305 306 306 307 305 303 300 297 298 299 300 300 298 303 308
286 287 289 291 292 292 293 292 294 293 293 296 297 293 301 302 302 307 313 312 306 302 302 305 305 304 300 300 304 305 304 307 306 304 300 296 298 297 301 302 299 301 307 308
291 291 290 292 291 291 290 292 290 291 293 296 294 299 303 299 304 306 307 306 305 302 304 304 303 302 301 305 306 306 307 306 304 302 301 300 300 300 303 300 302 305 307 307
288 287 289 286 284 285 287 289 289 288 288 289 295 302 296 298 303 306 305 301 301 301 304 303 303 303 304 304 305 306 305 304 302 301 300 300 302 304 301 303 306 307 309 308
281 278 279 282 285 285 286 287 285 287 288 287 298 298 297 304 306 308 306 304 300 303 301 303 302 303 303 303 304 304 303 301 300 299 301 302 304 301 304 307 309 310 309 311
285 283 288 290 290 290 282 284 289 287 287 291 293 293 301 309 306 304 304 303 302 301 299 299 298 301 301 302 302 302 301 299 299 303 303 302 302 304 306 308 308 307 311 315
283 282 283 283 282 283 282 286 289 286 288 287 283 296 312 305 301 304 301 299 299 299 295 297 299 300 301 302 301 300 299 300 301 302 300 303 303 305 307 308 307 305 311 316
282 278 278 278 281 280 281 283 284 287 286 285 284 302 308 303 300 302 297 297 297 295 297 297 300 303 304 300 299 299 301 301 299 301 302 300 303 305 307 307 307 308 314 319
276 275 280 284 288 282 281 283 284 286 284 291 295 301 305 302 300 298 294 294 293 298 297 297 299 300 300 298 299 300 302 301 300 300 301 300 303 306 307 307 310 313 319 317
275 277 283 285 289 279 279 283 286 280 285 286 301 297 305 301 296 291 290 289 294 300 294 293 300 300 300 301 301 303 299 300 298 299 300 300 302 305 308 308 312 317 318 318
273 277 279 281 284 278 275 288 280 283 287 288 293 294 308 297 293 289 285 292 299 293 293 299 306 304 299 296 300 296 296 298 297 299 302 301 304 306 306 308 313 317 316 317
272 274 277 278 279 273 272 291 289 286 282 290 288 297 285 287 285 280 287 294 288 294 295 298 299 298 295 296 295 294 295 300 302 303 303 301 303 305 306 310 313 316 316 318
275 274 272 278 275 267 290 291 286 284 287 285 281 282 285 284 275 285 289 287 290 294 298 295 295 294 295 293 293 294 296 301 304 305 302 301 303 305 308 312 314 316 318 321
271 269 270 273 277 280 281 296 294 289 282 287 278 291 285 275 278 280 277 282 296 304 301 297 295 295 293 293 296 297 299 301 303 303 301 301 303 307 308 311 314 317 321 324
268 268 269 273 274 273 288 284 281 282 280 303 294 291 283 275 275 279 272 275 300 302 302 298 297 295 295 295 294 298 300 302 303 301 299 301 306 307 308 312 316 320 324 325
275 271 266 270 274 276 277 279 277 271 299 292 281 278 275 275 277 277 283 292 295 295 296 296 297 290 293 297 296 298 300 302 303 302 300 304 306 305 310 314 318 322 325 326
266 276 271 270 273 278 284 276 271 286 281 279 280 276 278 277 280 284 290 293 291 293 296 298 294 291 295 298 297 302 300 302 302 299 300 303 304 307 311 317 320 323 326 328
272 268 273 273 281 282 279 281 282 282 283 281 288 278 280 279 279 291 294 290 287 293 299 296 294 294 297 298 301 303 301 301 300 298 298 301 304 308 314 316 321 325 327 329
278 277 279 273 274 282 278 280 278 293 291 288 282 290 278 282 286 288 288 290 292 293 294 297 299 294 297 298 300 299 297 297 296 295 297 301 306 310 313 318 322 325 329 329
268 276 276 275 275 281 282 280 276 288 287 288 289 293 287 275 289 285 289 297 293 295 296 294 298 299 294 297 298 296 295 294 291 294 298 304 309 311 316 320 323 326 330 329
270 270 272 277 281 282 284 280 277 280 285 289 283 285 279 279 287 284 286 294 296 295 296 291 300 300 296 296 295 293 291 288 291 297 302 306 310 311 318 322 327 329 329 328